| time (UTC) | temp F | wind direction | speed MPH | gust MPH | rain 1hr in | rain 24hr in | rain mn in | humidity % | barometer mb |
| 20260510195041 | 54 | 270 | 3.0 | 5.0 | 0.00 | 0.57 | 0.57 | 92 | 1014.2 |
| 20260510194608 | 54 | 208 | 4.0 | 6.0 | 0.00 | 0.57 | 0.57 | 92 | 1013.4 |
| 20260510194043 | 54 | 219 | 3.0 | 6.0 | 0.00 | 0.57 | 0.57 | 93 | 1014.0 |
| 20260510193517 | 54 | 185 | 1.0 | 3.0 | 0.00 | 0.57 | 0.57 | 93 | 1013.9 |
| 20260510193022 | 53 | 125 | 1.0 | 3.0 | 0.00 | 0.57 | 0.57 | 93 | 1013.8 |
| 20260510192558 | 53 | 167 | 2.0 | 2.0 | 0.00 | 0.57 | 0.57 | 93 | 1013.7 |
| 20260510192034 | 53 | 186 | 1.0 | 1.0 | 0.00 | 0.57 | 0.57 | 93 | 1013.7 |
| 20260510191545 | 53 | 146 | 0.0 | 1.0 | 0.00 | 0.57 | 0.57 | 93 | 1013.5 |
| 20260510191024 | 53 | 166 | 1.0 | 1.0 | 0.00 | 0.57 | 0.57 | 93 | 1013.6 |
| 20260510190549 | 53 | 177 | 0.0 | 2.0 | 0.00 | 0.57 | 0.57 | 93 | 1013.6 |
| 20260510190052 | 53 | 169 | 1.0 | 4.0 | 0.00 | 0.57 | 0.57 | 93 | 1013.5 |
| 20260510185540 | 53 | 226 | 0.0 | 5.0 | 0.00 | 0.57 | 0.57 | 93 | 1013.5 |
| 20260510185018 | 53 | 208 | 2.0 | 5.0 | 0.00 | 0.57 | 0.57 | 92 | 1013.4 |
| 20260510184519 | 53 | 221 | 2.0 | 4.0 | 0.00 | 0.57 | 0.57 | 93 | 1013.3 |
| 20260510184119 | 53 | 210 | 2.0 | 5.0 | 0.00 | 0.57 | 0.57 | 92 | 1012.7 |
| 20260510183540 | 53 | 193 | 3.0 | 6.0 | 0.00 | 0.57 | 0.57 | 92 | 1013.3 |
| 20260510183033 | 54 | 195 | 5.0 | 6.0 | 0.00 | 0.57 | 0.57 | 92 | 1013.4 |
| 20260510182540 | 54 | 264 | 3.0 | 7.0 | 0.00 | 0.57 | 0.57 | 92 | 1013.4 |
| 20260510182041 | 54 | 257 | 5.0 | 9.0 | 0.00 | 0.57 | 0.57 | 92 | 1013.4 |
| 20260510181533 | 54 | 230 | 2.0 | 9.0 | 0.00 | 0.57 | 0.57 | 91 | 1013.3 |
| 20260510181017 | 54 | 302 | 4.0 | 9.0 | 0.01 | 0.57 | 0.57 | 91 | 1013.3 |
| 20260510180524 | 54 | 239 | 8.0 | 9.0 | 0.02 | 0.57 | 0.57 | 91 | 1013.4 |
| 20260510180042 | 54 | 251 | 5.0 | 8.0 | 0.02 | 0.57 | 0.57 | 91 | 1013.3 |
| 20260510175542 | 54 | 219 | 6.0 | 8.0 | 0.03 | 0.57 | 0.57 | 90 | 1013.3 |
| 20260510175035 | 54 | 283 | 4.0 | 7.0 | 0.03 | 0.57 | 0.57 | 90 | 1013.2 |
| 20260510174536 | 54 | 198 | 3.0 | 6.0 | 0.03 | 0.57 | 0.57 | 92 | 1013.1 |
| 20260510174027 | 54 | 228 | 4.0 | 5.0 | 0.03 | 0.57 | 0.57 | 92 | 1013.1 |
| 20260510173531 | 54 | 240 | 2.0 | 4.0 | 0.03 | 0.57 | 0.57 | 92 | 1013.0 |
| 20260510173040 | 53 | 276 | 1.0 | 7.0 | 0.04 | 0.57 | 0.57 | 91 | 1013.1 |
| 20260510172532 | 53 | 230 | 1.0 | 7.0 | 0.05 | 0.57 | 0.57 | 93 | 1013.2 |
| 20260510172051 | 53 | 239 | 4.0 | 7.0 | 0.05 | 0.57 | 0.57 | 93 | 1013.5 |
| 20260510171534 | 53 | 237 | 3.0 | 8.0 | 0.05 | 0.57 | 0.57 | 92 | 1013.2 |
| 20260510171046 | 53 | 302 | 2.0 | 9.0 | 0.04 | 0.56 | 0.56 | 91 | 1013.5 |
| 20260510170528 | 53 | 246 | 7.0 | 11.0 | 0.03 | 0.55 | 0.55 | 89 | 1013.5 |
| 20260510170044 | 54 | 296 | 8.0 | 11.0 | 0.02 | 0.54 | 0.54 | 88 | 1013.5 |
| 20260510165541 | 54 | 267 | 5.0 | 10.0 | 0.04 | 0.54 | 0.54 | 90 | 1013.4 |
| 20260510165040 | 54 | 257 | 4.0 | 8.0 | 0.06 | 0.54 | 0.54 | 91 | 1013.3 |
| 20260510164519 | 54 | 248 | 5.0 | 10.0 | 0.07 | 0.54 | 0.54 | 91 | 1013.3 |
| 20260510164040 | 54 | 266 | 5.0 | 10.0 | 0.12 | 0.54 | 0.54 | 91 | 1013.3 |
| 20260510163540 | 54 | 254 | 7.0 | 11.0 | 0.15 | 0.54 | 0.54 | 91 | 1013.4 |
| 20260510163047 | 54 | 288 | 8.0 | 11.0 | 0.17 | 0.53 | 0.53 | 91 | 1013.3 |
| 20260510162636 | 54 | 270 | 4.0 | 11.0 | 0.17 | 0.52 | 0.52 | 92 | 1012.6 |
| 20260510162127 | 53 | 245 | 6.0 | 10.0 | 0.17 | 0.52 | 0.52 | 92 | 1012.6 |
| 20260510161537 | 53 | 210 | 6.0 | 10.0 | 0.20 | 0.52 | 0.52 | 93 | 1013.2 |
| 20260510161042 | 53 | 228 | 4.0 | 8.0 | 0.24 | 0.57 | 0.52 | 93 | 1013.1 |
| 20260510160525 | 53 | 222 | 2.0 | 8.0 | 0.26 | 0.57 | 0.52 | 93 | 1013.0 |
| 20260510155019 | 53 | 291 | 6.0 | 14.0 | 0.23 | 0.53 | 0.47 | 88 | 1013.2 |
| 20260510154547 | 54 | 348 | 7.0 | 13.0 | 0.22 | 0.52 | 0.46 | 91 | 1013.0 |
| 20260510154058 | 55 | 305 | 4.0 | 11.0 | 0.19 | 0.49 | 0.43 | 92 | 1013.0 |
| 20260510153023 | 55 | 286 | 7.0 | 9.0 | 0.12 | 0.42 | 0.36 | 91 | 1012.9 |
| 20260510152549 | 55 | 318 | 5.0 | 8.0 | 0.10 | 0.40 | 0.35 | 91 | 1012.7 |
| 20260510152030 | 55 | 336 | 3.0 | 8.0 | 0.10 | 0.40 | 0.35 | 91 | 1012.7 |
| 20260510151546 | 56 | 322 | 5.0 | 8.0 | 0.07 | 0.37 | 0.31 | 90 | 1012.7 |
| 20260510151022 | 56 | 321 | 1.0 | 8.0 | 0.05 | 0.35 | 0.29 | 88 | 1012.5 |
| 20260510150524 | 57 | 329 | 5.0 | 8.0 | 0.02 | 0.32 | 0.26 | 87 | 1012.4 |
| 20260510150134 | 57 | 327 | 4.0 | 7.0 | 0.00 | 0.31 | 0.24 | 85 | 1011.8 |
| 20260510145524 | 57 | 291 | 0.0 | 7.0 | 0.00 | 0.31 | 0.24 | 85 | 1012.4 |
| 20260510145017 | 57 | 277 | 4.0 | 8.0 | 0.00 | 0.31 | 0.24 | 83 | 1012.4 |
| 20260510144602 | 57 | 281 | 3.0 | 10.0 | 0.01 | 0.31 | 0.24 | 84 | 1012.5 |
| 20260510144043 | 57 | 276 | 5.0 | 10.0 | 0.01 | 0.31 | 0.24 | 84 | 1012.6 |
| 20260510143526 | 57 | 312 | 5.0 | 8.0 | 0.01 | 0.31 | 0.24 | 84 | 1012.7 |
| 20260510143023 | 57 | 271 | 4.0 | 9.0 | 0.02 | 0.31 | 0.24 | 85 | 1012.7 |
| 20260510142546 | 56 | 11 | 5.0 | 9.0 | 0.02 | 0.31 | 0.24 | 84 | 1012.6 |
| 20260510142039 | 57 | 279 | 6.0 | 10.0 | 0.02 | 0.31 | 0.24 | 85 | 1012.7 |
| 20260510141536 | 56 | 295 | 5.0 | 14.0 | 0.02 | 0.31 | 0.24 | 86 | 1012.8 |
| 20260510141057 | 56 | 273 | 7.0 | 14.0 | 0.02 | 0.31 | 0.24 | 86 | 1012.9 |
| 20260510140535 | 55 | 266 | 4.0 | 16.0 | 0.04 | 0.31 | 0.24 | 90 | 1013.1 |
| 20260510140046 | 55 | 274 | 13.0 | 16.0 | 0.07 | 0.31 | 0.24 | 88 | 1013.2 |
| 20260510135038 | 55 | 330 | 10.0 | 15.0 | 0.09 | 0.31 | 0.24 | 92 | 1013.3 |
| 20260510134534 | 55 | 292 | 5.0 | 14.0 | 0.08 | 0.30 | 0.24 | 94 | 1013.3 |
| 20260510134032 | 54 | 262 | 8.0 | 14.0 | 0.08 | 0.30 | 0.24 | 93 | 1013.3 |
| 20260510133526 | 54 | 293 | 6.0 | 13.0 | 0.09 | 0.30 | 0.24 | 94 | 1013.2 |
| 20260510133030 | 54 | 288 | 7.0 | 17.0 | 0.09 | 0.30 | 0.24 | 93 | 1013.3 |
| 20260510132036 | 54 | 248 | 8.0 | 15.0 | 0.10 | 0.29 | 0.23 | 93 | 1013.3 |
| 20260510131534 | 54 | 241 | 8.0 | 18.0 | 0.10 | 0.28 | 0.22 | 94 | 1013.3 |
| 20260510131049 | 53 | 257 | 12.0 | 18.0 | 0.10 | 0.28 | 0.22 | 93 | 1013.2 |
| 20260510130622 | 53 | 315 | 8.0 | 21.0 | 0.09 | 0.28 | 0.21 | 93 | 1012.6 |
| 20260510130101 | 54 | 244 | 13.0 | 21.0 | 0.06 | 0.24 | 0.17 | 91 | 1013.3 |
| 20260510125617 | 54 | 269 | 7.0 | 16.0 | 0.04 | 0.22 | 0.16 | 92 | 1012.5 |
| 20260510125030 | 54 | 283 | 8.0 | 14.0 | 0.04 | 0.22 | 0.16 | 92 | 1012.9 |
| 20260510124544 | 53 | 269 | 11.0 | 14.0 | 0.04 | 0.22 | 0.16 | 93 | 1012.9 |
| 20260510124045 | 53 | 285 | 7.0 | 12.0 | 0.04 | 0.22 | 0.16 | 93 | 1012.9 |
| 20260510123046 | 53 | 293 | 6.0 | 13.0 | 0.02 | 0.20 | 0.14 | 92 | 1012.9 |
| 20260510122542 | 54 | 290 | 8.0 | 19.0 | 0.02 | 0.20 | 0.13 | 89 | 1013.9 |
| 20260510122100 | 56 | 308 | 8.0 | 19.0 | 0.02 | 0.19 | 0.13 | 85 | 1013.8 |
| 20260510121127 | 57 | 228 | 6.0 | 13.0 | 0.03 | 0.18 | 0.12 | 89 | 1011.8 |
| 20260510120546 | 56 | 200 | 6.0 | 13.0 | 0.04 | 0.18 | 0.12 | 89 | 1013.3 |
| 20260510120124 | 56 | 241 | 9.0 | 13.0 | 0.04 | 0.18 | 0.12 | 90 | 1013.5 |
| 20260510115019 | 55 | 228 | 10.0 | 15.0 | 0.06 | 0.18 | 0.12 | 91 | 1013.9 |
| 20260510114525 | 55 | 234 | 8.0 | 14.0 | 0.06 | 0.18 | 0.12 | 92 | 1013.9 |
| 20260510114034 | 55 | 217 | 6.0 | 15.0 | 0.06 | 0.18 | 0.12 | 92 | 1013.8 |
| 20260510113029 | 55 | 244 | 9.0 | 14.0 | 0.06 | 0.18 | 0.12 | 92 | 1014.1 |
| 20260510112525 | 55 | 221 | 10.0 | 13.0 | 0.06 | 0.17 | 0.11 | 93 | 1014.1 |
| 20260510112041 | 55 | 188 | 8.0 | 13.0 | 0.06 | 0.17 | 0.11 | 93 | 1014.1 |
| 20260510111534 | 54 | 243 | 6.0 | 13.0 | 0.06 | 0.17 | 0.11 | 92 | 1014.0 |
| 20260510111027 | 54 | 205 | 6.0 | 13.0 | 0.04 | 0.17 | 0.09 | 92 | 1014.1 |
| 20260510110618 | 54 | 318 | 7.0 | 17.0 | 0.02 | 0.15 | 0.08 | 91 | 1012.6 |
| 20260510110048 | 55 | 237 | 10.0 | 17.0 | 0.02 | 0.15 | 0.08 | 90 | 1014.2 |
| 20260510105517 | 55 | 217 | 9.0 | 15.0 | 0.02 | 0.14 | 0.07 | 90 | 1014.1 |
| 20260510105040 | 55 | 248 | 7.0 | 8.0 | 0.02 | 0.13 | 0.06 | 90 | 1014.1 |
| 20260510104543 | 55 | 231 | 3.0 | 12.0 | 0.02 | 0.13 | 0.06 | 91 | 1014.1 |
| 20260510104127 | 55 | 211 | 6.0 | 13.0 | 0.02 | 0.13 | 0.06 | 90 | 1012.6 |
| 20260510103520 | 55 | 201 | 7.0 | 15.0 | 0.02 | 0.13 | 0.06 | 89 | 1014.1 |
| 20260510103040 | 55 | 201 | 9.0 | 15.0 | 0.02 | 0.13 | 0.06 | 87 | 1014.1 |
| 20260510102526 | 56 | 264 | 6.0 | 15.0 | 0.01 | 0.13 | 0.06 | 86 | 1014.1 |
| 20260510102114 | 56 | 240 | 8.0 | 15.0 | 0.01 | 0.13 | 0.06 | 85 | 1012.6 |
| 20260510101537 | 56 | 220 | 8.0 | 15.0 | 0.01 | 0.13 | 0.06 | 86 | 1014.2 |
| 20260510101044 | 56 | 223 | 7.0 | 15.0 | 0.01 | 0.22 | 0.06 | 86 | 1014.1 |
| 20260510100541 | 56 | 248 | 10.0 | 15.0 | 0.01 | 0.22 | 0.06 | 85 | 1014.1 |
| 20260510100044 | 56 | 224 | 9.0 | 13.0 | 0.01 | 0.22 | 0.06 | 83 | 1014.1 |
| 20260510095613 | 57 | 215 | 9.0 | 20.0 | 0.00 | 0.21 | 0.05 | 81 | 1012.6 |
| 20260510095043 | 57 | 250 | 10.0 | 22.0 | 0.00 | 0.21 | 0.05 | 78 | 1014.0 |
| 20260510094524 | 57 | 269 | 13.0 | 20.0 | 0.00 | 0.21 | 0.05 | 77 | 1014.0 |
| 20260510094030 | 57 | 221 | 10.0 | 18.0 | 0.00 | 0.21 | 0.05 | 77 | 1014.0 |
| 20260510093529 | 57 | 252 | 11.0 | 18.0 | 0.00 | 0.21 | 0.05 | 77 | 1013.9 |
| 20260510093021 | 57 | 216 | 11.0 | 18.0 | 0.00 | 0.21 | 0.05 | 77 | 1013.9 |
| 20260510092516 | 57 | 204 | 13.0 | 15.0 | 0.00 | 0.21 | 0.05 | 77 | 1013.9 |
| 20260510092028 | 57 | 182 | 7.0 | 17.0 | 0.00 | 0.21 | 0.05 | 78 | 1013.9 |
| 20260510091524 | 57 | 217 | 9.0 | 17.0 | 0.00 | 0.21 | 0.05 | 77 | 1013.8 |
| 20260510091044 | 57 | 245 | 8.0 | 23.0 | 0.00 | 0.21 | 0.05 | 77 | 1013.9 |
| 20260510090543 | 57 | 222 | 11.0 | 23.0 | 0.00 | 0.21 | 0.05 | 77 | 1013.8 |
| 20260510085542 | 57 | 210 | 9.0 | 17.0 | 0.00 | 0.21 | 0.05 | 77 | 1013.7 |
| 20260510085039 | 57 | 232 | 6.0 | 17.0 | 0.00 | 0.21 | 0.05 | 78 | 1013.7 |
| 20260510084608 | 57 | 234 | 14.0 | 17.0 | 0.00 | 0.21 | 0.05 | 78 | 1012.1 |
| 20260510084019 | 56 | 224 | 8.0 | 16.0 | 0.00 | 0.21 | 0.05 | 80 | 1013.7 |
| 20260510083546 | 56 | 257 | 9.0 | 14.0 | 0.00 | 0.21 | 0.05 | 80 | 1013.7 |
| 20260510083037 | 56 | 176 | 4.0 | 14.0 | 0.00 | 0.21 | 0.05 | 83 | 1012.8 |
| 20260510082620 | 56 | 115 | 5.0 | 13.0 | 0.00 | 0.21 | 0.05 | 83 | 1012.3 |
| 20260510082058 | 56 | 216 | 5.0 | 15.0 | 0.00 | 0.21 | 0.05 | 83 | 1013.0 |
| 20260510081518 | 56 | 200 | 11.0 | 15.0 | 0.00 | 0.21 | 0.05 | 82 | 1013.0 |
| 20260510081040 | 56 | 231 | 8.0 | 15.0 | 0.00 | 0.22 | 0.05 | 83 | 1013.0 |
| 20260510080605 | 56 | 221 | 8.0 | 15.0 | 0.00 | 0.22 | 0.05 | 85 | 1012.3 |
| 20260510080120 | 56 | 217 | 12.0 | 15.0 | 0.00 | 0.22 | 0.05 | 85 | 1012.8 |
| 20260510075530 | 56 | 191 | 5.0 | 15.0 | 0.00 | 0.22 | 0.05 | 87 | 1012.9 |
| 20260510075018 | 56 | 177 | 9.0 | 15.0 | 0.00 | 0.22 | 0.05 | 86 | 1012.9 |
| 20260510074524 | 56 | 188 | 9.0 | 14.0 | 0.00 | 0.22 | 0.05 | 87 | 1012.9 |
| 20260510074039 | 55 | 165 | 6.0 | 13.0 | 0.00 | 0.22 | 0.05 | 90 | 1012.8 |
| 20260510073538 | 55 | 136 | 4.0 | 13.0 | 0.00 | 0.22 | 0.05 | 91 | 1013.0 |
| 20260510073025 | 54 | 210 | 6.0 | 10.0 | 0.00 | 0.22 | 0.05 | 93 | 1012.9 |
| 20260510072519 | 53 | 212 | 6.0 | 11.0 | 0.00 | 0.22 | 0.05 | 93 | 1012.9 |
| 20260510072036 | 53 | 174 | 8.0 | 13.0 | 0.00 | 0.22 | 0.05 | 94 | 1013.0 |
| 20260510071520 | 53 | 201 | 3.0 | 13.0 | 0.00 | 0.22 | 0.05 | 94 | 1013.0 |
| 20260510071025 | 53 | 229 | 5.0 | 11.0 | 0.00 | 0.22 | 0.05 | 94 | 1013.1 |
| 20260510070103 | 53 | 218 | 6.0 | 8.0 | 0.00 | 0.22 | 0.05 | 94 | 1013.0 |
| 20260510065517 | 53 | 222 | 4.0 | 7.0 | 0.00 | 0.22 | 0.05 | 94 | 1012.9 |
| 20260510065030 | 53 | 215 | 3.0 | 8.0 | 0.00 | 0.22 | 0.05 | 94 | 1012.8 |
| 20260510064532 | 53 | 181 | 5.0 | 8.0 | 0.00 | 0.22 | 0.05 | 95 | 1012.7 |
| 20260510064101 | 53 | 228 | 3.0 | 5.0 | 0.00 | 0.22 | 0.05 | 95 | 1012.8 |
| 20260510063532 | 53 | 163 | 3.0 | 6.0 | 0.00 | 0.22 | 0.05 | 95 | 1012.7 |
| 20260510063101 | 52 | 152 | 4.0 | 6.0 | 0.00 | 0.22 | 0.05 | 95 | 1012.7 |
| 20260510062530 | 52 | 201 | 3.0 | 6.0 | 0.00 | 0.22 | 0.05 | 95 | 1012.7 |
| 20260510062031 | 52 | 200 | 3.0 | 6.0 | 0.00 | 0.22 | 0.05 | 95 | 1012.7 |
| 20260510061516 | 52 | 211 | 3.0 | 6.0 | 0.00 | 0.22 | 0.05 | 95 | 1012.6 |
| 20260510061109 | 52 | 210 | 3.0 | 5.0 | 0.00 | 0.22 | 0.05 | 95 | 1011.9 |
| 20260510060044 | 52 | 134 | 2.0 | 6.0 | 0.01 | 0.22 | 0.05 | 95 | 1012.5 |
| 20260510055520 | 52 | 207 | 3.0 | 6.0 | 0.02 | 0.22 | 0.05 | 95 | 1012.5 |
| 20260510055033 | 52 | 214 | 4.0 | 5.0 | 0.03 | 0.22 | 0.05 | 95 | 1012.4 |
| 20260510054537 | 52 | 205 | 1.0 | 5.0 | 0.03 | 0.22 | 0.05 | 95 | 1013.4 |
| 20260510054025 | 52 | 190 | 2.0 | 5.0 | 0.03 | 0.22 | 0.05 | 95 | 1013.4 |
| 20260510053616 | 52 | 229 | 1.0 | 5.0 | 0.03 | 0.22 | 0.05 | 95 | 1011.8 |
| 20260510052530 | 52 | 141 | 1.0 | 7.0 | 0.04 | 0.22 | 0.05 | 95 | 1013.4 |
| 20260510052035 | 52 | 211 | 3.0 | 6.0 | 0.05 | 0.22 | 0.05 | 95 | 1013.4 |
| 20260510051532 | 52 | 226 | 3.0 | 6.0 | 0.05 | 0.22 | 0.05 | 95 | 1013.4 |
| 20260510051040 | 52 | 252 | 3.0 | 5.0 | 0.05 | 0.22 | 0.05 | 95 | 1013.5 |
| 20260510050620 | 52 | 212 | 3.0 | 6.0 | 0.05 | 0.22 | 0.05 | 94 | 1011.8 |
| 20260510050058 | 52 | 216 | 5.0 | 6.0 | 0.04 | 0.21 | 0.04 | 94 | 1013.3 |
| 20260510045601 | 52 | 198 | 3.0 | 8.0 | 0.03 | 0.20 | 0.03 | 94 | 1013.3 |
| 20260510045017 | 52 | 222 | 3.0 | 8.0 | 0.02 | 0.19 | 0.02 | 94 | 1013.3 |
| 20260510044517 | 52 | 201 | 4.0 | 6.0 | 0.02 | 0.19 | 0.02 | 94 | 1013.3 |
| 20260510044100 | 52 | 231 | 2.0 | 4.0 | 0.02 | 0.19 | 0.02 | 93 | 1013.2 |
| 20260510043542 | 52 | 184 | 2.0 | 7.0 | 0.02 | 0.19 | 0.02 | 93 | 1013.3 |
| 20260510043026 | 52 | 150 | 4.0 | 10.0 | 0.01 | 0.18 | 0.01 | 93 | 1013.3 |
| 20260510042538 | 52 | 214 | 6.0 | 10.0 | 0.01 | 0.18 | 0.01 | 93 | 1013.3 |
| 20260510042016 | 52 | 208 | 6.0 | 11.0 | 0.01 | 0.18 | 0.01 | 92 | 1013.3 |
| 20260510041520 | 52 | 212 | 5.0 | 11.0 | 0.00 | 0.17 | 0.00 | 92 | 1013.3 |
| 20260510041129 | 52 | 231 | 3.0 | 8.0 | 0.00 | 0.17 | 0.00 | 91 | 1011.7 |
| 20260510040528 | 52 | 207 | 3.0 | 9.0 | 0.00 | 0.17 | 0.00 | 91 | 1013.3 |
| 20260510035535 | 52 | 126 | 2.0 | 7.0 | 0.00 | 0.17 | 0.00 | 90 | 1013.3 |
| 20260510035032 | 52 | 188 | 1.0 | 6.0 | 0.00 | 0.17 | 0.00 | 90 | 1013.4 |
| 20260510034522 | 52 | 200 | 1.0 | 6.0 | 0.00 | 0.17 | 0.00 | 89 | 1013.4 |
| 20260510034142 | 52 | 211 | 3.0 | 5.0 | 0.00 | 0.17 | 0.00 | 89 | 1011.9 |
| 20260510033523 | 52 | 148 | 1.0 | 5.0 | 0.00 | 0.17 | 0.00 | 89 | 1013.6 |
| 20260510033043 | 52 | 194 | 0.0 | 4.0 | 0.00 | 0.17 | 0.00 | 89 | 1013.6 |
| 20260510032546 | 53 | 191 | 0.0 | 4.0 | 0.00 | 0.17 | 0.00 | 88 | 1013.5 |
| 20260510032025 | 53 | 166 | 2.0 | 4.0 | 0.00 | 0.17 | 0.00 | 87 | 1013.5 |
| 20260510031551 | 52 | 180 | 0.0 | 3.0 | 0.00 | 0.17 | 0.00 | 87 | 1013.4 |
| 20260510031058 | 52 | 209 | 0.0 | 2.0 | 0.00 | 0.17 | 0.00 | 87 | 1013.5 |
| 20260510030522 | 52 | 201 | 0.0 | 3.0 | 0.00 | 0.17 | 0.00 | 86 | 1013.5 |
| 20260510030043 | 52 | 203 | 2.0 | 4.0 | 0.00 | 0.17 | 0.00 | 86 | 1013.5 |
| 20260510025527 | 52 | 226 | 3.0 | 4.0 | 0.00 | 0.17 | 0.00 | 86 | 1013.5 |
| 20260510025024 | 52 | 167 | 0.0 | 0.0 | 0.00 | 0.17 | 0.00 | 86 | 1013.5 |
| 20260510024520 | 52 | 217 | 0.0 | 0.0 | 0.00 | 0.17 | 0.00 | 86 | 1013.5 |
| 20260510023602 | 52 | 182 | 0.0 | 0.0 | 0.00 | 0.17 | 0.00 | 86 | 1013.6 |
| 20260510023056 | 52 | 184 | 0.0 | 0.0 | 0.00 | 0.17 | 0.00 | 86 | 1013.6 |
| 20260510022517 | 52 | 217 | 0.0 | 0.0 | 0.00 | 0.17 | 0.00 | 86 | 1013.6 |
| 20260510022016 | 52 | 226 | 0.0 | 0.0 | 0.00 | 0.17 | 0.00 | 86 | 1013.7 |
| 20260510021538 | 52 | 236 | 0.0 | 0.0 | 0.00 | 0.17 | 0.00 | 85 | 1013.7 |
| 20260510021041 | 52 | 266 | 0.0 | 0.0 | 0.00 | 0.17 | 0.00 | 85 | 1013.8 |
| 20260510020537 | 52 | 226 | 0.0 | 0.0 | 0.00 | 0.17 | 0.00 | 85 | 1013.7 |
| 20260510020100 | 52 | 230 | 0.0 | 0.0 | 0.00 | 0.17 | 0.00 | 85 | 1013.8 |
| 20260510015015 | 53 | 240 | 0.0 | 2.0 | 0.00 | 0.17 | 0.00 | 85 | 1013.8 |
| 20260510014602 | 53 | 278 | 0.0 | 1.0 | 0.00 | 0.17 | 0.00 | 85 | 1013.7 |
| 20260510014039 | 52 | 285 | 0.0 | 1.0 | 0.00 | 0.17 | 0.00 | 85 | 1013.7 |
| 20260510013516 | 52 | 277 | 0.0 | 1.0 | 0.00 | 0.17 | 0.00 | 85 | 1013.7 |
| 20260510013034 | 52 | 132 | 0.0 | 3.0 | 0.00 | 0.17 | 0.00 | 85 | 1013.8 |
| 20260510012517 | 52 | 290 | 0.0 | 5.0 | 0.00 | 0.17 | 0.00 | 85 | 1013.8 |
| 20260510012037 | 53 | 264 | 2.0 | 6.0 | 0.00 | 0.17 | 0.00 | 85 | 1013.8 |
| 20260510011525 | 53 | 244 | 3.0 | 6.0 | 0.00 | 0.17 | 0.00 | 84 | 1013.9 |
| 20260510011028 | 53 | 239 | 3.0 | 5.0 | 0.00 | 0.17 | 0.00 | 84 | 1014.0 |
| 20260510010526 | 53 | 226 | 1.0 | 5.0 | 0.00 | 0.17 | 0.00 | 84 | 1014.0 |
| 20260510010059 | 53 | 259 | 2.0 | 5.0 | 0.00 | 0.17 | 0.00 | 84 | 1014.2 |
| 20260510005536 | 53 | 263 | 4.0 | 6.0 | 0.00 | 0.17 | 0.00 | 84 | 1014.1 |
| 20260510005022 | 53 | 264 | 2.0 | 8.0 | 0.00 | 0.17 | 0.00 | 83 | 1014.1 |
| 20260510004041 | 53 | 228 | 3.0 | 8.0 | 0.00 | 0.17 | 0.00 | 83 | 1014.1 |
| 20260510003541 | 53 | 255 | 2.0 | 9.0 | 0.00 | 0.17 | 0.00 | 82 | 1014.1 |
| 20260510003032 | 53 | 214 | 5.0 | 9.0 | 0.00 | 0.17 | 0.00 | 82 | 1014.1 |
| 20260510002516 | 53 | 222 | 4.0 | 7.0 | 0.00 | 0.17 | 0.00 | 82 | 1014.1 |
| 20260510002019 | 53 | 213 | 4.0 | 10.0 | 0.00 | 0.17 | 0.00 | 82 | 1014.1 |
| 20260510001534 | 53 | 245 | 7.0 | 10.0 | 0.00 | 0.17 | 0.00 | 82 | 1014.1 |
| 20260510001023 | 53 | 231 | 4.0 | 11.0 | 0.00 | 0.17 | 0.00 | 82 | 1014.1 |
| 20260510000523 | 53 | 231 | 7.0 | 11.0 | 0.00 | 0.17 | 0.00 | 82 | 1014.1 |
| 20260510000105 | 53 | 240 | 8.0 | 11.0 | 0.00 | 0.17 | 0.00 | 82 | 1014.1 |
| 20260509235533 | 53 | 233 | 7.0 | 12.0 | 0.00 | 0.17 | 0.00 | 81 | 1014.0 |
| 20260509235031 | 54 | 212 | 5.0 | 14.0 | 0.00 | 0.17 | 0.00 | 81 | 1014.0 |
| 20260509234550 | 54 | 237 | 8.0 | 16.0 | 0.00 | 0.17 | 0.00 | 81 | 1014.1 |
| 20260509234028 | 54 | 232 | 8.0 | 16.0 | 0.00 | 0.17 | 0.00 | 81 | 1014.1 |
| 20260509233618 | 54 | 227 | 9.0 | 14.0 | 0.00 | 0.17 | 0.00 | 80 | 1012.5 |
| 20260509233046 | 54 | 219 | 9.0 | 14.0 | 0.00 | 0.17 | 0.00 | 80 | 1014.2 |
| 20260509232525 | 54 | 238 | 8.0 | 13.0 | 0.00 | 0.17 | 0.00 | 80 | 1014.1 |
| 20260509232030 | 54 | 221 | 6.0 | 11.0 | 0.00 | 0.17 | 0.00 | 80 | 1014.2 |
| 20260509231531 | 54 | 236 | 6.0 | 13.0 | 0.00 | 0.17 | 0.00 | 80 | 1014.2 |
| 20260509231032 | 54 | 241 | 6.0 | 13.0 | 0.00 | 0.17 | 0.00 | 79 | 1014.3 |
| 20260509230536 | 54 | 263 | 7.0 | 15.0 | 0.00 | 0.17 | 0.00 | 80 | 1014.3 |
| 20260509230050 | 54 | 243 | 7.0 | 15.0 | 0.00 | 0.17 | 0.00 | 79 | 1014.3 |
| 20260509225642 | 54 | 258 | 9.0 | 14.0 | 0.00 | 0.17 | 0.00 | 80 | 1012.7 |
| 20260509225032 | 54 | 221 | 6.0 | 15.0 | 0.00 | 0.17 | 0.00 | 80 | 1014.1 |
| 20260509224535 | 54 | 241 | 7.0 | 15.0 | 0.00 | 0.17 | 0.00 | 79 | 1014.1 |
| 20260509224035 | 54 | 212 | 10.0 | 18.0 | 0.00 | 0.17 | 0.00 | 79 | 1014.0 |
| 20260509223540 | 55 | 232 | 8.0 | 18.0 | 0.00 | 0.17 | 0.00 | 80 | 1014.0 |
| 20260509223016 | 55 | 222 | 9.0 | 12.0 | 0.00 | 0.17 | 0.00 | 80 | 1014.0 |
| 20260509222539 | 55 | 230 | 8.0 | 14.0 | 0.00 | 0.17 | 0.00 | 79 | 1014.1 |
| 20260509222036 | 55 | 245 | 10.0 | 14.0 | 0.00 | 0.17 | 0.00 | 79 | 1014.0 |
| 20260509221525 | 55 | 228 | 9.0 | 14.0 | 0.00 | 0.17 | 0.00 | 79 | 1014.1 |
| 20260509221018 | 55 | 252 | 9.0 | 13.0 | 0.00 | 0.17 | 0.00 | 79 | 1014.0 |
| 20260509220529 | 55 | 243 | 7.0 | 11.0 | 0.00 | 0.17 | 0.00 | 79 | 1014.1 |
| 20260509220116 | 55 | 238 | 7.0 | 10.0 | 0.00 | 0.17 | 0.17 | 79 | 1014.0 |
| 20260509215617 | 55 | 204 | 7.0 | 12.0 | 0.00 | 0.17 | 0.17 | 79 | 1012.3 |
| 20260509215136 | 55 | 244 | 7.0 | 11.0 | 0.00 | 0.17 | 0.17 | 80 | 1012.3 |
| 20260509214523 | 56 | 243 | 9.0 | 12.0 | 0.00 | 0.17 | 0.17 | 80 | 1013.8 |
| 20260509213525 | 56 | 217 | 6.0 | 12.0 | 0.00 | 0.17 | 0.17 | 80 | 1013.7 |
| 20260509213027 | 56 | 243 | 6.0 | 11.0 | 0.00 | 0.17 | 0.17 | 79 | 1013.6 |
| 20260509212524 | 56 | 220 | 6.0 | 9.0 | 0.00 | 0.17 | 0.17 | 79 | 1013.7 |
| 20260509212057 | 56 | 208 | 4.0 | 8.0 | 0.00 | 0.17 | 0.17 | 79 | 1013.7 |
| 20260509211535 | 56 | 218 | 5.0 | 8.0 | 0.00 | 0.17 | 0.17 | 78 | 1013.6 |
| 20260509210536 | 56 | 224 | 3.0 | 5.0 | 0.00 | 0.17 | 0.17 | 77 | 1013.4 |
| 20260509210055 | 56 | 232 | 3.0 | 7.0 | 0.00 | 0.17 | 0.17 | 77 | 1013.4 |
| 20260509205605 | 56 | 221 | 4.0 | 8.0 | 0.00 | 0.17 | 0.17 | 76 | 1011.8 |
| 20260509205042 | 56 | 236 | 6.0 | 10.0 | 0.00 | 0.17 | 0.17 | 76 | 1013.3 |
| 20260509204537 | 56 | 221 | 6.0 | 10.0 | 0.00 | 0.17 | 0.17 | 76 | 1013.3 |
| 20260509204100 | 56 | 214 | 7.0 | 10.0 | 0.00 | 0.17 | 0.17 | 76 | 1013.3 |
| 20260509203541 | 56 | 205 | 4.0 | 7.0 | 0.00 | 0.17 | 0.17 | 77 | 1013.3 |
| 20260509203028 | 56 | 193 | 2.0 | 7.0 | 0.00 | 0.17 | 0.17 | 77 | 1013.1 |
| 20260509202535 | 56 | 186 | 3.0 | 7.0 | 0.00 | 0.17 | 0.17 | 77 | 1013.0 |
| 20260509202035 | 56 | 232 | 2.0 | 7.0 | 0.00 | 0.17 | 0.17 | 77 | 1012.9 |
| 20260509201624 | 56 | 211 | 3.0 | 8.0 | 0.00 | 0.17 | 0.17 | 76 | 1011.3 |
| 20260509201038 | 56 | 191 | 4.0 | 8.0 | 0.00 | 0.17 | 0.17 | 75 | 1012.9 |
| 20260509200533 | 57 | 181 | 3.0 | 8.0 | 0.00 | 0.17 | 0.17 | 75 | 1012.8 |
| 20260509200051 | 57 | 212 | 5.0 | 8.0 | 0.00 | 0.17 | 0.17 | 75 | 1012.6 |